WetterOnline ( https://www.wetteronline.de )

Wetter aktuell Alp Spitz

Aktuelles Wetter: Kempten (705m)

6-stündlich | Neueste Meldungen
Ortszeit Temperatur Wetter
Mo, 24.01. 19:00 -2.7° C wolkenlos
Mo, 24.01. 13:00 1.3° C wolkenlos
Mo, 24.01. 7:00 -6.0° C Nebel
Mo, 24.01. 1:00 -1.5° C wolkenlos
So, 23.01. 19:00 1.0° C bedeckt
So, 23.01. 13:00 2.0° C bewölkt
So, 23.01. 7:00 -0.2° C Schneegriesel
So, 23.01. 1:00 0.0° C bedeckt
Ortszeit Temperatur Wetter
Mo, 24.01. 23:00 -5.7° C wolkenlos
Mo, 24.01. 22:30 -5.4° C wolkenlos
Mo, 24.01. 22:00 -5.0° C wolkenlos
Mo, 24.01. 21:30 -4.8° C wolkenlos
Mo, 24.01. 21:00 -4.3° C wolkenlos
Mo, 24.01. 20:30 -4.5° C wolkenlos
Mo, 24.01. 20:00 -3.6° C wolkenlos
Ortszeit Relative Feuchte Sichtweite
Mo, 24.01. 19:00 89% 14 km
Mo, 24.01. 13:00 67% 40 km
Mo, 24.01. 7:00 94% 7 km
Mo, 24.01. 1:00 90% 26 km
So, 23.01. 19:00 82% 27 km
So, 23.01. 13:00 79% 30 km
So, 23.01. 7:00 96% 4.2 km
So, 23.01. 1:00 92% 16 km
Ortszeit Relative Feuchte Sichtweite
Mo, 24.01. 23:00 91% 12 km
Mo, 24.01. 22:30 91% 10 km
Mo, 24.01. 22:00 93% 9 km
Mo, 24.01. 21:30 92% 10 km
Mo, 24.01. 21:00 91% 2.7 km
Mo, 24.01. 20:30 90% 12 km
Mo, 24.01. 20:00 90% 12 km
Ortszeit Niederschlagsmenge Niederschlagsart
Mo, 24.01. 19:00 0.0 l/m2 in 12 Std. -
Mo, 24.01. 13:00 0.0 l/m2 in 6 Std. -
Mo, 24.01. 7:00 0.0 l/m2 in 12 Std. -
Mo, 24.01. 1:00 0.0 l/m2 in 6 Std. -
So, 23.01. 19:00 0.1 l/m2 in 12 Std. -
So, 23.01. 13:00 0.1 l/m2 in 6 Std. Schnee, Sprühregen
So, 23.01. 7:00 0.1 l/m2 in 12 Std. Schnee, Sprühregen
So, 23.01. 1:00 0.1 l/m2 in 6 Std. Schnee, Sprühregen
Ortszeit Niederschlagsmenge Niederschlagsart
Mo, 24.01. 23:00 0.0 l/m2 in 1 Std. -
Mo, 24.01. 22:30 0.0 l/m2 in 1 Std. -
Mo, 24.01. 22:00 0.0 l/m2 in 1 Std. -
Mo, 24.01. 21:30 0.0 l/m2 in 1 Std. -
Mo, 24.01. 21:00 0.0 l/m2 in 1 Std. -
Mo, 24.01. 20:30 0.0 l/m2 in 1 Std. -
Mo, 24.01. 20:00 0.0 l/m2 in 1 Std. -
Ortszeit Stärke Spitze Richtung
km/h Bft. km/h Grad Sektor
Mo, 24.01. 19:00 2 1 13 80° O
Mo, 24.01. 13:00 4 1 11 40° NO
Mo, 24.01. 7:00 4 1 18 160° S
Mo, 24.01. 1:00 0 0 22 - -
So, 23.01. 19:00 4 1 11 110° O
So, 23.01. 13:00 6 1 7 10° N
So, 23.01. 7:00 4 1 7 190° S
So, 23.01. 1:00 0 0 14 - -
Ortszeit Stärke Spitze Richtung
km/h Bft. km/h Grad Sektor
Mo, 24.01. 23:00 7 2 11 110° O
Mo, 24.01. 22:30 4 1 7 90° O
Mo, 24.01. 22:00 6 1 7 110° O
Mo, 24.01. 21:30 6 1 7 100° O
Mo, 24.01. 21:00 4 1 7 100° O
Mo, 24.01. 20:30 6 1 7 100° O
Mo, 24.01. 20:00 4 1 7 110° O
Ortszeit Untergrenze Bedeckung Gattung
total tief tief mittel hoch
Mo, 24.01. 19:00 - 0/8 0/8 - - -
Mo, 24.01. 13:00 - 0/8 0/8 - - -
Mo, 24.01. 7:00 30 m 7/8 7/8 - - -
Mo, 24.01. 1:00 - 0/8 0/8 - - -
So, 23.01. 19:00 420 m 8/8 8/8 - - -
So, 23.01. 13:00 510 m 7/8 7/8 - - -
So, 23.01. 7:00 90 m 8/8 8/8 - - -
So, 23.01. 1:00 750 m 8/8 8/8 - - -
Ortszeit Bedeckungsgrad in Achtel und Wolkenuntergrenze
Mo, 24.01. 23:00 keine Wolken
Mo, 24.01. 22:30 keine Wolken
Mo, 24.01. 22:00 keine Wolken
Mo, 24.01. 21:30 keine Wolken
Mo, 24.01. 21:00 keine Wolken
Mo, 24.01. 20:30 keine Wolken
Mo, 24.01. 20:00 keine Wolken
Ortszeit Luftdruck NN (hPa) Tendenz (hPa in 3 Std.)
Mo, 24.01. 19:00 1036 + 0,7
Mo, 24.01. 13:00 1034 - 0,4
Mo, 24.01. 7:00 1036 - 0,3
Mo, 24.01. 1:00 1036 - 0,3
So, 23.01. 19:00 1035 - 0,2
So, 23.01. 13:00 1035 - 0,8
So, 23.01. 7:00 1036 0,0
So, 23.01. 1:00 1036 - 0,9
Ortszeit Luftdruck NN (hPa) Tendenz (hPa in 3 Std.)
Mo, 24.01. 23:00 1037 + 0,1
Mo, 24.01. 22:30 1037 + 0,3
Mo, 24.01. 22:00 1037 + 0,2
Mo, 24.01. 21:30 1037 + 0,2
Mo, 24.01. 21:00 1036 + 0,2
Mo, 24.01. 20:30 1036 + 0,3
Mo, 24.01. 20:00 1036 + 0,6
Ortszeit Schneehöhe (cm)
Mo, 24.01. 19:00 0
Mo, 24.01. 13:00 0
Mo, 24.01. 7:00 0
Mo, 24.01. 1:00 0
So, 23.01. 19:00 0
So, 23.01. 13:00 -
So, 23.01. 7:00 2
So, 23.01. 1:00 2
Ortszeit Schneehöhe (cm)
Mo, 24.01. 23:00 0
Mo, 24.01. 22:30 0
Mo, 24.01. 22:00 0
Mo, 24.01. 21:30 0
Mo, 24.01. 21:00 0
Mo, 24.01. 20:30 0
Mo, 24.01. 20:00 0
Link zu dieser Seite / Seite empfehlen

Das Wetter in ...